Location: Avon School (historical)
(37.7514°N, 90.2201°W)
Time: 02:20:01
(UTC+00:00)

Vanguard 2 Rocket - Pass Details

Date: 19 November 2024
Orbit: 554 x 3296 km, 32.9° (Epoch: 03 December)

Event Time Altitude Azimuth Distance (km) Brightness Sun altitude
Exits shadow 09:27:25 15° 178° (S) 3,301 9.7 -39.0°
Maximum altitude 09:33:18 25° 135° (SE) 3,247 9.9 -37.9°
Drops below altitude 10° 09:44:04 10° 88° (E) 5,316 11.6 -35.8°
Sets 09:50:03 0° 78° (ENE) 6,746 12.3 -34.6°
